Regional Weather Roundup
Issued by NWS Charleston, WV

Home | Current Version | Previous Version | Graphics & Text | Print | Product List | Glossary On
Versions: 1 2 3 4 5 6 7 8 9 10 11 12 13 14 15 16 17 18 19 20 21 22 23 24 25 26 27 28 29 30 31 32 33 34 35 36 37 38 39 40 41 42 43 44 45 46 47 48 49 50
000
ASUS41 KRLX 221210
RWRRLX
West Virginia Regional Weather Roundup
National Weather Service Charleston WV
700 AM EST SAT NOV 22 2014

Note: "fair" indicates few or no clouds below 12,000 feet with no
significant weather and/or obstructions to visibility.

WVZ003-221300-
Northern Panhandle of West Virginia

CITY           SKY/WX    TMP DP  RH WIND       PRES   REMARKS
WHEELING       CLOUDY    27  10  49 S8        30.31F
$$

WVZ009-221300-
Northwest West Virginia

CITY           SKY/WX    TMP DP  RH WIND       PRES   REMARKS
PARKERSBURG    CLOUDY    20  16  84 CALM      30.39S
$$

WVZ006-221300-
Western West Virginia

CITY           SKY/WX    TMP DP  RH WIND       PRES   REMARKS
HUNTINGTON     CLEAR     21  16  81 N3        30.36R
$$

WVZ015-221300-
West Central West Virginia

CITY           SKY/WX    TMP DP  RH WIND       PRES   REMARKS
CHARLESTON     PTCLDY    19  16  88 CALM      30.37S
$$

WVZ022-031-221300-
North Central West Virginia

CITY           SKY/WX    TMP DP  RH WIND       PRES   REMARKS
CLARKSBURG     PTCLDY    17  11  77 CALM      30.37F
MORGANTOWN     CLEAR     19   9  65 CALM      30.35F
$$

WVZ025-035-042-045-221300-
Southern West Virginia

CITY           SKY/WX    TMP DP  RH WIND       PRES   REMARKS
BECKLEY        PTCLDY    25  11  55 CALM      30.38S
LOGAN            N/A     37   7  28 VRB5      30.37S
BLUEFIELD      PTCLDY    26   5  40 SE3       30.39S
LEWISBURG      MOCLDY    17  11  79 CALM      30.43S
$$

WVZ047-221300-
Northern Mountains of West Virginia

CITY           SKY/WX    TMP DP  RH WIND       PRES   REMARKS
ELKINS         CLEAR     11   9  92 CALM      30.39F
$$

WVZ052-221300-
Eastern Panhandle of West Virginia

CITY           SKY/WX    TMP DP  RH WIND       PRES   REMARKS
MARTINSBURG    PTCLDY    13   7  77 CALM      30.46S
PETERSBURG     PTCLDY    14  11  86 CALM      30.45R
$$



USA.gov is the U.S. government's official web portal to all federal, state and local government web resources and services.